This is the latest recevied weather packets stored in our database for station/object VK5GR-12. If no packets are shown the sender has not sent any weather packets the latest 10 day(s).
| Time | Temp. | Humidity | Pressure | Rain* | Wind** | Luminosity | Snow |
|---|---|---|---|---|---|---|---|
| 1778248843 | 12.22° C | 93% | 1029.6 hPa | 0 mm | - | 0 W/m² | - |
| 1778247944 | 11.67° C | 92% | 1029.6 hPa | 0 mm | - | 0 W/m² | - |
| 1778247041 | 12.22° C | 92% | 1029.8 hPa | 0 mm | - | 0 W/m² | - |
| 1778246136 | 12.22° C | 92% | 1029.8 hPa | 0 mm | - | 0 W/m² | - |
| 1778245233 | 12.22° C | 92% | 1029.9 hPa | 0 mm | - | 0 W/m² | - |
| 1778244330 | 12.22° C | 92% | 1030 hPa | 0 mm | - | 0 W/m² | - |
| 1778243428 | 11.67° C | 92% | 1030.3 hPa | 0 mm | - | 0 W/m² | - |
| 1778242526 | 11.67° C | 90% | 1030.1 hPa | 0 mm | - | 0 W/m² | - |
| 1778241624 | 11.67° C | 89% | 1030.1 hPa | 0 mm | - | 0 W/m² | - |
| 1778240720 | 12.22° C | 89% | 1030 hPa | 0 mm | - | 0 W/m² | - |
| 1778239818 | 12.22° C | 88% | 1030 hPa | 0 mm | - | 0 W/m² | - |
| 1778238913 | 12.78° C | 86% | 1030.1 hPa | 0 mm | - | 0 W/m² | - |
| 1778238009 | 12.78° C | 85% | 1029.8 hPa | 0 mm | - | 0 W/m² | - |
| 1778237106 | 13.33° C | 84% | 1030.1 hPa | 0 mm | - | 0 W/m² | - |
| 1778236201 | 13.33° C | 82% | 1029.9 hPa | 0 mm | - | 0 W/m² | - |
| 1778235299 | 13.89° C | 82% | 1030 hPa | 0 mm | - | 0 W/m² | - |
| 1778234397 | 13.33° C | 84% | 1029.9 hPa | 0 mm | - | 0 W/m² | - |
| 1778233494 | 13.33° C | 87% | 1029.8 hPa | 0 mm | - | 0 W/m² | - |
| 1778232592 | 13.33° C | 87% | 1029.8 hPa | 0 mm | - | 0 W/m² | - |
| 1778231690 | 13.89° C | 87% | 1029.7 hPa | 0 mm | - | 0 W/m² | - |
| 1778230787 | 13.89° C | 86% | 1029.4 hPa | 0 mm | - | 0 W/m² | - |
| 1778229883 | 14.44° C | 86% | 1029.6 hPa | 0 mm | - | 0 W/m² | - |
| 1778228978 | 14.44° C | 85% | 1029.3 hPa | 0 mm | - | 0 W/m² | - |
| 1778228076 | 15° C | 84% | 1029.3 hPa | 0 mm | - | 0 W/m² | - |
| 1778227173 | 15° C | 83% | 1029.2 hPa | 0 mm | - | 3 W/m² | - |
* Rain latest hour (hover to see other rain measurements)
** Current wind speed in m/s (hover to see current wind gust speed)